Regional Weather Roundup
Issued by NWS

Home | Current Version | Previous Version | Graphics & Text | Print | Product List | Glossary On
Versions: 1 2 3 4 5 6 7 8 9 10 11 12 13 14 15 16 17 18 19 20 21 22 23 24 25 26 27 28 29 30 31 32 33 34 35 36 37 38 39 40 41 42 43 44 45 46 47 48 49 50
000
ASUS45 KSLC 292010
RWRUT

UTAH REGIONAL WEATHER ROUNDUP
NATIONAL WEATHER SERVICE SALT LAKE CITY UT
200 PM MDT WED JUL 29 2015

UTZ001>011-023>025-292100-

NORTHERN UTAH

CITY           SKY/WX    TMP DP  RH WIND       PRES   REMARKS
BRIGHAM CITY   SUNNY     79  28  15 CALM      30.30S
HILL AFB       SUNNY     78  33  19 SW5       30.31F
LOGAN          SUNNY     78  33  19 VRB3      30.30F
OGDEN          SUNNY     79  32  18 VRB5      30.29F
PROVO AIRPORT  NOT AVBL
SALT LAKE CITY MOSUNNY   81  31  16 NW10      30.27F
VERNAL         SUNNY     81  18   9 S5        30.30F
WENDOVER       SUNNY     79  28  15 SE7       30.30F
HEBER CITY     SUNNY     79  27  14 CALM      30.33F
WEST JORDAN    SUNNY     79  34  19 NE7       30.30F

$$

UTZ012>022-026-027-292100-

SOUTHERN/CENTRAL UTAH

CITY           SKY/WX    TMP DP  RH WIND       PRES   REMARKS
BLANDING       SUNNY     87  31  13 W6        30.34F
BRYCE CANYON   SUNNY     79  27  14 MISG      30.42F
CEDAR CITY     SUNNY     85  26  11 VRB5      30.28F
DELTA          SUNNY     84  22  10 NE9       30.27F
HANKSVILLE     SUNNY     91  27   9 E5        30.21F
MILFORD        SUNNY     87  25  10 N15G22    30.25F
MOAB/CYNLANDS  SUNNY     91  23   8 VRB3      30.19F
PRICE          SUNNY     87  22   9 VRB5      30.29F
ST GEORGE      CLEAR     95  34  11 SW7       30.08F HX  90
KANAB          MOSUNNY   91  30  11 CALM      30.25F

$$

REGIONAL REPORTS     COLORADO/ARIZONA

CITY           SKY/WX    TMP DP  RH WIND       PRES   REMARKS
CRAIG, CO      SUNNY     83  26  12 VRB3      30.35F
GRAND JUNCTION SUNNY     87  24  10 VRB7      30.22F
RIFLE          SUNNY     87  28  12 VRB5      30.26F
MONTROSE       SUNNY     86  34  15 NW9       30.29F
CORTEZ         SUNNY     85  38  18 W8        30.27F
PAGE, AZ       MOSUNNY   93  26   9 N7        30.16F
GRAND CANYON   MOSUNNY   85  24  11 N12G18    30.34F
KINGMAN        MOSUNNY   94  52  24 SW10G18   30.12F HX  91
FLAGSTAFF      PTSUNNY   77  52  41 S12G18    30.37S

$$

REGIONAL REPORTS    NEVADA/IDAHO/WYOMING

CITY           SKY/WX    TMP DP  RH WIND       PRES   REMARKS
LAS VEGAS, NV  MOSUNNY  101  30   8 N8        29.98F HX  94
ELY            SUNNY     85  24  11 VRB7      30.33F
ELKO           SUNNY     83  23  11 CALM      30.27F
POCATELLO, ID  SUNNY     79  34  19 N3        30.31F
BURLEY         SUNNY     78  31  17 N7        30.27F
EVANSTON, WY   SUNNY     75   9   8 VRB7      30.43S
ROCK SPRINGS   SUNNY     72  23  16 CALM      30.41F
KEMMERER       SUNNY     70  21  16 SE6       30.45S

$$



USA.gov is the U.S. government's official web portal to all federal, state and local government web resources and services.